Time,TemperatureF,DewpointF,PressureIn,WindDirection,WindDirectionDegrees,WindSpeedMPH,WindSpeedGustMPH,Humidity,HourlyPrecipIn,Conditions,Clouds,dailyrainin,SolarRadiationWatts/m^2,SoftwareType,DateUTC
2013-02-01 00:09:00,6.0,0.0,30.13,WNW,297,4.0,10.0,76,0.00,,,0.00,0,weatherlink.com 1.10,2013-02-01 06:09:00,
2013-02-01 00:24:00,5.7,0.0,30.13,WNW,294,3.0,12.0,76,0.00,,,0.00,0,weatherlink.com 1.10,2013-02-01 06:24:00,
2013-02-01 00:40:00,5.5,-1.0,30.13,WNW,301,2.0,10.0,76,0.00,,,0.00,0,weatherlink.com 1.10,2013-02-01 06:40:00,
2013-02-01 00:54:00,5.3,-1.0,30.13,WSW,253,4.0,11.0,76,0.00,,,0.00,0,weatherlink.com 1.10,2013-02-01 06:54:00,
2013-02-01 01:09:00,5.2,-1.0,30.14,WNW,282,0.0,11.0,76,0.00,,,0.00,0,weatherlink.com 1.10,2013-02-01 07:09:00,
2013-02-01 01:25:00,5.0,-1.0,30.15,WNW,302,0.0,12.0,76,0.00,,,0.00,0,weatherlink.com 1.10,2013-02-01 07:25:00,
2013-02-01 01:40:00,4.7,-1.0,30.16,North,355,1.0,7.0,77,0.00,,,0.00,0,weatherlink.com 1.10,2013-02-01 07:40:00,
2013-02-01 01:55:00,4.6,-1.0,30.17,SW,227,5.0,9.0,77,0.00,,,0.00,0,weatherlink.com 1.10,2013-02-01 07:55:00,
2013-02-01 02:10:00,4.4,-1.0,30.18,West,281,2.0,12.0,77,0.00,,,0.00,0,weatherlink.com 1.10,2013-02-01 08:10:00,
2013-02-01 02:25:00,4.3,-1.0,30.18,West,281,8.0,11.0,77,0.00,,,0.00,0,weatherlink.com 1.10,2013-02-01 08:25:00,
2013-02-01 02:40:00,4.3,-2.0,30.18,WNW,287,5.0,10.0,76,0.00,,,0.00,0,weatherlink.com 1.10,2013-02-01 08:40:00,
2013-02-01 02:55:00,4.2,-2.0,30.19,NNW,331,6.0,14.0,77,0.00,,,0.00,0,weatherlink.com 1.10,2013-02-01 08:55:00,
2013-02-01 03:10:00,4.1,-2.0,30.20,NW,321,2.0,11.0,77,0.00,,,0.00,0,weatherlink.com 1.10,2013-02-01 09:10:00,
2013-02-01 03:25:00,3.9,-2.0,30.20,WSW,252,3.0,7.0,77,0.00,,,0.00,0,weatherlink.com 1.10,2013-02-01 09:25:00,
2013-02-01 03:40:00,3.7,-2.0,30.21,NW,308,2.0,10.0,77,0.00,,,0.00,0,weatherlink.com 1.10,2013-02-01 09:40:00,
2013-02-01 03:55:00,3.5,-2.0,30.21,West,275,10.0,10.0,77,0.00,,,0.00,0,weatherlink.com 1.10,2013-02-01 09:55:00,
2013-02-01 04:11:00,3.4,-2.0,30.23,WNW,290,8.0,13.0,77,0.00,,,0.00,0,weatherlink.com 1.10,2013-02-01 10:11:00,
2013-02-01 04:40:00,3.1,-3.0,30.24,WNW,294,2.0,8.0,77,0.00,,,0.00,0,weatherlink.com 1.10,2013-02-01 10:40:00,
2013-02-01 04:56:00,2.8,-3.0,30.25,SSW,194,2.0,9.0,77,0.00,,,0.00,0,weatherlink.com 1.10,2013-02-01 10:56:00,
2013-02-01 05:11:00,2.6,-3.0,30.26,NW,307,1.0,8.0,77,0.00,,,0.00,0,weatherlink.com 1.10,2013-02-01 11:11:00,
2013-02-01 05:26:00,2.4,-3.0,30.26,West,281,5.0,7.0,78,0.00,,,0.00,0,weatherlink.com 1.10,2013-02-01 11:26:00,
2013-02-01 05:41:00,2.2,-3.0,30.26,WNW,284,4.0,5.0,78,0.00,,,0.00,0,weatherlink.com 1.10,2013-02-01 11:41:00,
2013-02-01 05:56:00,2.0,-3.0,30.27,WNW,301,3.0,11.0,78,0.00,,,0.00,0,weatherlink.com 1.10,2013-02-01 11:56:00,
2013-02-01 06:11:00,1.8,-4.0,30.27,WNW,287,3.0,8.0,78,0.00,,,0.00,0,weatherlink.com 1.10,2013-02-01 12:11:00,
2013-02-01 06:26:00,1.7,-4.0,30.28,WNW,298,2.0,6.0,78,0.00,,,0.00,0,weatherlink.com 1.10,2013-02-01 12:26:00,
2013-02-01 06:41:00,1.5,-4.0,30.29,WNW,298,4.0,8.0,78,0.00,,,0.00,0,weatherlink.com 1.10,2013-02-01 12:41:00,
2013-02-01 06:56:00,1.3,-4.0,30.29,NW,309,2.0,7.0,78,0.00,,,0.00,0,weatherlink.com 1.10,2013-02-01 12:56:00,
2013-02-01 07:12:00,1.1,-4.0,30.29,SE,144,1.0,8.0,78,0.00,,,0.00,5,weatherlink.com 1.10,2013-02-01 13:12:00,
2013-02-01 07:26:00,1.0,-4.0,30.30,West,267,1.0,8.0,78,0.00,,,0.00,14,weatherlink.com 1.10,2013-02-01 13:26:00,
2013-02-01 07:42:00,1.0,-4.0,30.30,WNW,285,4.0,5.0,78,0.00,,,0.00,21,weatherlink.com 1.10,2013-02-01 13:42:00,
2013-02-01 07:57:00,1.0,-4.0,30.30,NW,315,3.0,8.0,78,0.00,,,0.00,26,weatherlink.com 1.10,2013-02-01 13:57:00,
2013-02-01 08:12:00,1.2,-4.0,30.31,WSW,237,0.0,6.0,78,0.00,,,0.00,33,weatherlink.com 1.10,2013-02-01 14:12:00,
2013-02-01 08:27:00,1.3,-4.0,30.32,NW,318,1.0,11.0,77,0.00,,,0.00,39,weatherlink.com 1.10,2013-02-01 14:27:00,
2013-02-01 08:42:00,1.5,-4.0,30.31,NW,304,3.0,10.0,77,0.00,,,0.00,40,weatherlink.com 1.10,2013-02-01 14:42:00,
2013-02-01 08:57:00,1.8,-4.0,30.32,WNW,298,3.0,10.0,76,0.00,,,0.00,44,weatherlink.com 1.10,2013-02-01 14:57:00,
2013-02-01 09:12:00,2.2,-4.0,30.33,NNE,22,0.0,8.0,75,0.00,,,0.00,118,weatherlink.com 1.10,2013-02-01 15:12:00,
2013-02-01 09:27:00,2.8,-4.0,30.32,WNW,300,2.0,6.0,74,0.00,,,0.00,134,weatherlink.com 1.10,2013-02-01 15:27:00,
2013-02-01 09:42:00,3.0,-4.0,30.32,WNW,288,4.0,10.0,73,0.00,,,0.00,322,weatherlink.com 1.10,2013-02-01 15:42:00,
2013-02-01 09:57:00,4.4,-3.0,30.33,West,275,3.0,6.0,73,0.00,,,0.00,260,weatherlink.com 1.10,2013-02-01 15:57:00,
2013-02-01 10:12:00,5.1,-2.0,30.33,SSE,163,3.0,6.0,72,0.00,,,0.00,165,weatherlink.com 1.10,2013-02-01 16:12:00,
2013-02-01 10:27:00,5.1,-2.0,30.33,NE,39,2.0,6.0,71,0.00,,,0.00,294,weatherlink.com 1.10,2013-02-01 16:27:00,
2013-02-01 10:43:00,5.6,-2.0,30.33,NW,319,1.0,5.0,70,0.00,,,0.00,264,weatherlink.com 1.10,2013-02-01 16:43:00,
2013-02-01 10:58:00,6.1,-2.0,30.33,ENE,64,3.0,7.0,70,0.00,,,0.00,250,weatherlink.com 1.10,2013-02-01 16:58:00,
2013-02-01 11:12:00,7.5,0.0,30.32,WNW,296,3.0,7.0,70,0.00,,,0.00,350,weatherlink.com 1.10,2013-02-01 17:12:00,
2013-02-01 11:27:00,7.7,-1.0,30.32,ESE,107,1.0,6.0,68,0.00,,,0.00,503,weatherlink.com 1.10,2013-02-01 17:27:00,
2013-02-01 11:42:00,8.3,0.0,30.31,NW,319,2.0,7.0,68,0.00,,,0.00,506,weatherlink.com 1.10,2013-02-01 17:42:00,
2013-02-01 11:58:00,8.6,-1.0,30.31,NW,311,2.0,6.0,66,0.00,,,0.00,510,weatherlink.com 1.10,2013-02-01 17:58:00,
2013-02-01 12:13:00,9.5,0.0,30.30,North,355,2.0,7.0,65,0.00,,,0.00,418,weatherlink.com 1.10,2013-02-01 18:13:00,
2013-02-01 12:28:00,9.8,0.0,30.30,SSW,199,1.0,8.0,65,0.00,,,0.00,306,weatherlink.com 1.10,2013-02-01 18:28:00,
2013-02-01 12:43:00,10.1,1.0,30.30,South,173,1.0,5.0,66,0.00,,,0.00,207,weatherlink.com 1.10,2013-02-01 18:43:00,
2013-02-01 12:58:00,9.2,-1.0,30.29,South,169,4.0,7.0,64,0.00,,,0.00,211,weatherlink.com 1.10,2013-02-01 18:58:00,
2013-02-01 13:15:00,9.7,0.0,30.29,SSE,159,6.0,7.0,66,0.00,,,0.00,91,weatherlink.com 1.10,2013-02-01 19:15:00,
2013-02-01 13:28:00,9.0,0.0,30.29,SE,136,2.0,8.0,68,0.00,,,0.00,334,weatherlink.com 1.10,2013-02-01 19:28:00,
2013-02-01 13:43:00,9.0,0.0,30.29,SE,126,4.0,6.0,67,0.00,,,0.00,292,weatherlink.com 1.10,2013-02-01 19:43:00,
2013-02-01 13:58:00,8.4,-1.0,30.29,SSE,159,1.0,12.0,67,0.00,,,0.00,362,weatherlink.com 1.10,2013-02-01 19:58:00,
2013-02-01 14:14:00,8.1,-1.0,30.29,SW,227,3.0,10.0,67,0.00,,,0.00,383,weatherlink.com 1.10,2013-02-01 20:14:00,
2013-02-01 14:28:00,8.3,-1.0,30.29,SE,126,4.0,9.0,67,0.00,,,0.00,350,weatherlink.com 1.10,2013-02-01 20:28:00,
2013-02-01 14:43:00,8.2,0.0,30.29,South,189,1.0,10.0,68,0.00,,,0.00,42,weatherlink.com 1.10,2013-02-01 20:43:00,
2013-02-01 14:59:00,8.5,0.0,30.28,South,191,4.0,7.0,68,0.00,,,0.00,39,weatherlink.com 1.10,2013-02-01 20:59:00,
2013-02-01 15:14:00,8.1,0.0,30.28,SSE,155,4.0,7.0,69,0.00,,,0.00,37,weatherlink.com 1.10,2013-02-01 21:14:00,
2013-02-01 15:29:00,7.9,0.0,30.28,SSE,163,2.0,9.0,70,0.00,,,0.00,42,weatherlink.com 1.10,2013-02-01 21:29:00,
2013-02-01 15:44:00,7.9,0.0,30.28,NW,311,0.0,7.0,70,0.00,,,0.00,47,weatherlink.com 1.10,2013-02-01 21:44:00,
2013-02-01 15:59:00,7.4,-2.0,30.28,SSE,157,2.0,5.0,66,0.00,,,0.00,35,weatherlink.com 1.10,2013-02-01 21:59:00,
2013-02-01 16:14:00,7.0,-2.0,30.27,SSW,193,2.0,7.0,66,0.00,,,0.00,28,weatherlink.com 1.10,2013-02-01 22:14:00,
2013-02-01 16:29:00,6.6,-2.0,30.27,WNW,295,0.0,5.0,67,0.00,,,0.00,19,weatherlink.com 1.10,2013-02-01 22:29:00,
2013-02-01 16:44:00,6.3,-2.0,30.27,SE,146,0.0,7.0,69,0.00,,,0.00,12,weatherlink.com 1.10,2013-02-01 22:44:00,
2013-02-01 16:59:00,6.3,-2.0,30.26,SSW,202,1.0,7.0,70,0.00,,,0.00,5,weatherlink.com 1.10,2013-02-01 22:59:00,
2013-02-01 17:14:00,6.3,-2.0,30.26,SSE,152,1.0,8.0,70,0.00,,,0.00,0,weatherlink.com 1.10,2013-02-01 23:14:00,
2013-02-01 17:29:00,6.6,-1.0,30.27,SSE,148,4.0,5.0,70,0.00,,,0.00,0,weatherlink.com 1.10,2013-02-01 23:29:00,
2013-02-01 17:44:00,6.5,-2.0,30.27,ENE,76,0.0,7.0,69,0.00,,,0.00,0,weatherlink.com 1.10,2013-02-01 23:44:00,
2013-02-01 17:59:00,6.8,-1.0,30.26,WNW,296,2.0,6.0,70,0.00,,,0.00,0,weatherlink.com 1.10,2013-02-01 23:59:00,
2013-02-01 18:14:00,6.9,0.0,30.26,SE,142,3.0,9.0,72,0.00,,,0.00,0,weatherlink.com 1.10,2013-02-02 00:14:00,
2013-02-01 18:30:00,7.2,0.0,30.26,South,173,2.0,8.0,73,0.00,,,0.00,0,weatherlink.com 1.10,2013-02-02 00:30:00,
2013-02-01 18:45:00,7.5,1.0,30.25,SE,128,2.0,11.0,73,0.00,,,0.00,0,weatherlink.com 1.10,2013-02-02 00:45:00,
2013-02-01 19:00:00,7.7,1.0,30.24,SSE,158,4.0,7.0,73,0.00,,,0.00,0,weatherlink.com 1.10,2013-02-02 01:00:00,
2013-02-01 19:15:00,8.0,1.0,30.24,South,186,1.0,7.0,73,0.00,,,0.00,0,weatherlink.com 1.10,2013-02-02 01:15:00,
2013-02-01 19:30:00,8.4,1.0,30.24,SSE,161,2.0,11.0,73,0.00,,,0.00,0,weatherlink.com 1.10,2013-02-02 01:30:00,
2013-02-01 19:45:00,8.5,2.0,30.24,NE,38,2.0,7.0,73,0.00,,,0.00,0,weatherlink.com 1.10,2013-02-02 01:45:00,
2013-02-01 20:00:00,8.8,2.0,30.24,ENE,76,5.0,6.0,72,0.00,,,0.00,0,weatherlink.com 1.10,2013-02-02 02:00:00,
2013-02-01 20:15:00,9.1,2.0,30.24,ESE,119,3.0,8.0,72,0.00,,,0.00,0,weatherlink.com 1.10,2013-02-02 02:15:00,
2013-02-01 20:30:00,9.1,2.0,30.23,South,169,1.0,8.0,72,0.00,,,0.00,0,weatherlink.com 1.10,2013-02-02 02:30:00,
2013-02-01 20:45:00,9.3,2.0,30.23,SSE,164,1.0,7.0,72,0.00,,,0.00,0,weatherlink.com 1.10,2013-02-02 02:45:00,
2013-02-01 21:00:00,9.4,2.0,30.23,South,188,2.0,10.0,73,0.00,,,0.00,0,weatherlink.com 1.10,2013-02-02 03:00:00,
2013-02-01 21:16:00,9.4,3.0,30.23,ESE,106,3.0,8.0,76,0.00,,,0.00,0,weatherlink.com 1.10,2013-02-02 03:16:00,
2013-02-01 21:31:00,9.3,4.0,30.23,SSE,153,3.0,6.0,78,0.00,,,0.00,0,weatherlink.com 1.10,2013-02-02 03:31:00,
2013-02-01 21:46:00,9.6,4.0,30.23,South,176,1.0,7.0,79,0.00,,,0.00,0,weatherlink.com 1.10,2013-02-02 03:46:00,
2013-02-01 22:01:00,9.5,5.0,30.22,SSW,202,2.0,5.0,82,0.00,,,0.00,0,weatherlink.com 1.10,2013-02-02 04:01:00,
2013-02-01 22:16:00,9.7,5.0,30.22,SE,136,1.0,5.0,82,0.00,,,0.00,0,weatherlink.com 1.10,2013-02-02 04:16:00,
2013-02-01 22:31:00,9.9,6.0,30.22,SE,144,2.0,5.0,83,0.00,,,0.00,0,weatherlink.com 1.10,2013-02-02 04:31:00,
2013-02-01 22:46:00,9.9,6.0,30.21,SSE,157,3.0,7.0,84,0.00,,,0.00,0,weatherlink.com 1.10,2013-02-02 04:46:00,
2013-02-01 23:01:00,10.0,6.0,30.21,SW,229,0.0,4.0,85,0.00,,,0.00,0,weatherlink.com 1.10,2013-02-02 05:01:00,
2013-02-01 23:16:00,10.2,7.0,30.21,SSE,168,1.0,6.0,85,0.00,,,0.00,0,weatherlink.com 1.10,2013-02-02 05:16:00,
2013-02-01 23:31:00,10.3,7.0,30.21,SE,138,1.0,5.0,86,0.00,,,0.00,0,weatherlink.com 1.10,2013-02-02 05:31:00,
2013-02-01 23:46:00,10.5,7.0,30.20,South,184,2.0,5.0,86,0.00,,,0.00,0,weatherlink.com 1.10,2013-02-02 05:46:00,